This demonstration page uses our WeatherBlox Daily Observations layout. Learn more.

Hourly Observations for March 13, 2017

Temp ( °F °C ) Dew Point ( °F °C ) Humidity (%) Winds ( mph kmh ) Pressure ( in mb ) Visibility ( mi km ) Precip ( " mm )
12:15 am 00:15 Partly Cloudy 28 -2.5 18 -8 66 66 NNW 23 37 30.27 1025 10 16.0934 0 0
12:35 am 00:35 Clear 27 -3 17 -8.5 66 66 NNW 24 39 30.27 1025 10 16.0934 0 0
12:55 am 00:55 Clear 24 -4.2 14 -10.2 63 63 NNW 26 43 30.3 1026 10 16.0934 0 0
1:15 am 01:15 Clear 23 -5.1 12 -11 64 64 NNW 22 35 30.33 1027 10 16.0934 0 0
1:35 am 01:35 Clear 22 -5.7 12 -11.1 66 66 NNW 18 30 30.36 1028 10 16.0934 0 0
1:55 am 01:55 Clear 21 -6.2 11 -11.5 66 66 NNW 21 33 30.36 1028 10 16.0934 0 0
2:15 am 02:15 Clear 20 -6.7 10 -12.5 64 64 NNW 26 43 30.36 1028 10 16.0934 0 0
2:35 am 02:35 Clear 19 -7 10 -12.5 65 65 NNW 22 35 30.36 1028 10 16.0934 0 0
2:55 am 02:55 Clear 19 -7.5 8 -13.1 65 65 NNW 17 28 30.42 1030 10 16.0934 0 0
3:15 am 03:15 Clear 18 -7.6 9 -12.6 68 68 NNW 16 26 30.42 1030 10 16.0934 0 0
3:35 am 03:35 Clear 17 -8.3 8 -13.5 66 66 NNW 20 31 30.42 1030 10 16.0934 0 0
3:55 am 03:55 Clear 17 -8.5 8 -13.3 69 69 NNW 22 35 30.45 1031 10 16.0934 0 0
4:15 am 04:15 Clear 16 -8.8 8 -13.5 69 69 NNW 21 33 30.45 1031 10 16.0934 0 0
4:35 am 04:35 Clear 16 -9 8 -13.5 70 70 NNW 22 35 30.45 1031 10 16.0934 0 0
4:55 am 04:55 Clear 16 -9.1 8 -13.6 70 70 NNW 18 30 30.45 1031 10 16.0934 0 0
5:15 am 05:15 Clear 15 -9.3 8 -13.6 71 71 NNW 20 31 30.45 1031 10 16.0934 0 0
5:35 am 05:35 Clear 15 -9.2 8 -13.5 71 71 NNW 23 37 30.48 1032 10 16.0934 0 0
5:55 am 05:55 Partly Cloudy 15 -9.3 8 -13.5 72 72 NNW 17 28 30.48 1032 10 16.0934 0 0
6:15 am 06:15 Mostly Cloudy 15 -9.5 8 -13.5 73 73 NNW 16 26 30.48 1032 10 16.0934 0 0
6:35 am 06:35 Mostly Cloudy 15 -9.7 8 -13.6 73 73 NNW 16 26 30.48 1032 10 16.0934 0 0
6:55 am 06:55 Mostly Cloudy 15 -9.3 8 -13.2 74 74 NNW 17 28 30.5 1033 10 16.0934 0 0
7:15 am 07:15 Cloudy 15 -9.3 8 -13.5 72 72 NNW 17 28 30.5 1033 10 16.0934 0 0
7:35 am 07:35 Mostly Cloudy 15 -9.5 8 -13.5 73 73 N 16 26 30.53 1034 10 16.0934 0 0
7:55 am 07:55 Mostly Cloudy 15 -9.5 8 -13.5 73 73 NNW 16 26 30.53 1034 10 16.0934 0 0
8:15 am 08:15 Partly Cloudy 15 -9.5 8 -13.3 74 74 N 20 31 30.53 1034 10 16.0934 0 0
8:35 am 08:35 Sunny 16 -9 9 -13 73 73 NNW 16 26 30.53 1034 10 16.0934 0 0
8:55 am 08:55 Sunny 17 -8.6 9 -13 71 71 NNW 17 28 30.53 1034 10 16.0934 0 0
9:15 am 09:15 Partly Cloudy 17 -8.3 9 -13 69 69 N 18 30 30.53 1034 10 16.0934 0 0
9:35 am 09:35 Partly Cloudy 18 -7.7 9 -12.7 68 68 N 20 31 30.53 1034 10 16.0934 0 0
9:55 am 09:55 Partly Cloudy 19 -7.3 9 -12.7 66 66 N 18 30 30.53 1034 10 16.0934 0 0
10:15 am 10:15 Partly Cloudy 20 -6.9 9 -12.8 63 63 NNW 16 26 30.53 1034 10 16.0934 0 0
10:35 am 10:35 Partly Cloudy 20 -6.6 9 -13 61 61 N 17 28 30.53 1034 10 16.0934 0 0
10:55 am 10:55 Partly Cloudy 21 -6 9 -12.6 60 60 N 15 24 30.5 1033 10 16.0934 0 0
11:15 am 11:15 Partly Cloudy 22 -5.5 9 -12.6 58 58 N 15 24 30.5 1033 10 16.0934 0 0
11:35 am 11:35 Sunny 23 -5.2 9 -12.7 56 56 N 14 22 30.5 1033 10 16.0934 0 0
11:55 am 11:55 Sunny 23 -4.8 9 -12.7 54 54 NNE 10 17 30.48 1032 10 16.0934 0 0
12:15 pm 12:15 Sunny 25 -4.1 9 -12.6 52 52 N 13 20 30.5 1033 10 16.0934 0 0
12:35 pm 12:35 Sunny 26 -3.6 10 -12.4 51 51 N 9 15 30.45 1031 10 16.0934 0 0
12:55 pm 12:55 Sunny 27 -3 10 -12.3 49 49 NNE 9 15 30.45 1031 10 16.0934 0 0
1:15 pm 13:15 Sunny 27 -3 10 -12.4 49 49 NNE 12 19 30.45 1031 10 16.0934 0 0
1:35 pm 13:35 Sunny 27 -2.8 10 -12.5 48 48 NE 6 9 30.45 1031 10 16.0934 0 0
1:55 pm 13:55 Sunny 28 -2 10 -12.4 45 45 NNE 9 15 30.42 1030 10 16.0934 0 0
2:15 pm 14:15 Sunny 28 -2 10 -12.5 45 45 NNE 6 9 30.42 1030 10 16.0934 0 0
2:35 pm 14:35 Sunny 29 -1.4 10 -12.3 44 44 Calm 30.39 1029 10 16.0934 0 0
2:55 pm 14:55 Sunny 30 -1 10 -12.2 43 43 NNE 3 6 30.36 1028 10 16.0934 0 0
3:15 pm 15:15 Sunny 30 -1.1 9 -12.8 41 41 N 9 15 30.36 1028 10 16.0934 0 0
3:35 pm 15:35 Sunny 30 -1.1 9 -12.6 42 42 NE 6 9 30.36 1028 10 16.0934 0 0
3:55 pm 15:55 Sunny 31 -0.5 9 -12.7 40 40 N 7 11 30.36 1028 10 16.0934 0 0
4:15 pm 16:15 Sunny 31 -0.5 9 -12.7 40 40 ENE 3 6 30.36 1028 10 16.0934 0 0
4:35 pm 16:35 Sunny 32 -0.2 9 -12.8 38 38 NNW 8 13 30.36 1028 10 16.0934 0 0
4:55 pm 16:55 Sunny 32 0.1 9 -13 37 37 WNW 8 13 30.36 1028 10 16.0934 0 0
5:15 pm 17:15 Sunny 32 -0.1 9 -13 38 38 NNW 5 7 30.36 1028 10 16.0934 0 0
5:35 pm 17:35 Sunny 32 0 9 -12.9 38 38 NNW 5 7 30.36 1028 10 16.0934 0 0
5:55 pm 17:55 Sunny 31 -0.5 9 -12.9 39 39 Calm 30.33 1027 10 16.0934 0 0
6:15 pm 18:15 Sunny 31 -0.5 9 -12.7 40 40 ENE 6 9 30.33 1027 10 16.0934 0 0
6:35 pm 18:35 Sunny 31 -0.8 9 -12.9 40 40 NE 8 13 30.33 1027 10 16.0934 0 0
6:55 pm 18:55 Partly Cloudy 30 -1 9 -12.9 40 40 NE 8 13 30.33 1027 10 16.0934 0 0
7:15 pm 19:15 Sunny 30 -1.3 9 -12.8 42 42 NE 8 13 30.33 1027 10 16.0934 0 0
7:35 pm 19:35 Partly Cloudy 29 -1.5 9 -12.8 42 42 NE 6 9 30.36 1028 10 16.0934 0 0
7:55 pm 19:55 Mostly Cloudy 28 -2 9 -13 43 43 NE 3 6 30.36 1028 10 16.0934 0 0
8:15 pm 20:15 Partly Cloudy 27 -2.7 9 -12.6 47 47 E 8 13 30.36 1028 10 16.0934 0 0
8:35 pm 20:35 Mostly Cloudy 26 -3.2 9 -12.6 49 49 E 8 13 30.36 1028 10 16.0934 0 0
8:55 pm 20:55 Cloudy 27 -3 10 -12.5 48 48 E 6 9 30.36 1028 10 16.0934 0 0
9:15 pm 21:15 Cloudy 27 -2.9 10 -12.4 48 48 E 7 11 30.36 1028 10 16.0934 0 0
9:35 pm 21:35 Cloudy 27 -3 10 -12.4 49 49 E 8 13 30.39 1029 10 16.0934 0 0
9:55 pm 21:55 Cloudy 26 -3.2 10 -12.2 50 50 E 12 19 30.39 1029 10 16.0934 0 0
10:15 pm 22:15 Cloudy 26 -3.5 10 -12.1 52 52 E 10 17 30.36 1028 10 16.0934 0 0
10:35 pm 22:35 Cloudy 25 -3.7 10 -12 53 53 E 14 22 30.36 1028 10 16.0934 0 0
10:55 pm 22:55 Cloudy 25 -4 11 -11.8 55 55 E 12 19 30.39 1029 10 16.0934 0 0
11:15 pm 23:15 Cloudy 25 -4 11 -11.8 55 55 E 10 17 30.39 1029 10 16.0934 0 0
11:35 pm 23:35 Cloudy 25 -4.1 11 -11.7 56 56 E 13 20 30.39 1029 10 16.0934 0 0
11:55 pm 23:55 Cloudy 24 -4.3 11 -11.5 58 58 E 15 24 30.42 1030 10 16.0934 0 0

Powered by AerisWeather